owner,sensor,date,latitude,longitude,air_pressure(mBar),qcFlag 
WAVCIS,ioos:station:WAVCIS:CSI15:1,2010-10-01T00:00:00Z,28.8332,-90.8320,1007.013,11111222 
WAVCIS,ioos:station:WAVCIS:CSI15:1,2010-10-01T01:00:00Z,28.8332,-90.8320,1007.58,11111222 
WAVCIS,ioos:station:WAVCIS:CSI15:1,2010-10-01T02:00:00Z,28.8332,-90.8320,1008.44,11111222 
WAVCIS,ioos:station:WAVCIS:CSI15:1,2010-10-01T03:00:00Z,28.8332,-90.8320,1009.11,11111222 
WAVCIS,ioos:station:WAVCIS:CSI15:1,2010-10-01T04:00:00Z,28.8332,-90.8320,1009.6,11111222 
WAVCIS,ioos:station:WAVCIS:CSI15:1,2010-10-01T05:00:00Z,28.8332,-90.8320,1009.54,11111222 
WAVCIS,ioos:station:WAVCIS:CSI15:1,2010-10-01T06:00:00Z,28.8332,-90.8320,1009.4,11111222 
WAVCIS,ioos:station:WAVCIS:CSI15:1,2010-10-01T07:00:00Z,28.8332,-90.8320,1009.01,11111222 
WAVCIS,ioos:station:WAVCIS:CSI15:1,2010-10-01T08:00:00Z,28.8332,-90.8320,1008.7,11111222 
WAVCIS,ioos:station:WAVCIS:CSI15:1,2010-10-01T09:00:00Z,28.8332,-90.8320,1008.53,11111222 
WAVCIS,ioos:station:WAVCIS:CSI15:1,2010-10-01T10:00:00Z,28.8332,-90.8320,1008.77,11111222 
WAVCIS,ioos:station:WAVCIS:CSI15:1,2010-10-01T11:00:00Z,28.8332,-90.8320,1009.3,11111222 
WAVCIS,ioos:station:WAVCIS:CSI15:1,2010-10-01T12:00:00Z,28.8332,-90.8320,1009.76,11111222 
WAVCIS,ioos:station:WAVCIS:CSI15:1,2010-10-01T13:00:00Z,28.8332,-90.8320,1010.13,11111222 
WAVCIS,ioos:station:WAVCIS:CSI15:1,2010-10-01T14:00:00Z,28.8332,-90.8320,1010.67,11111222 
WAVCIS,ioos:station:WAVCIS:CSI15:1,2010-10-01T15:00:00Z,28.8332,-90.8320,1011.0,11111222 
WAVCIS,ioos:station:WAVCIS:CSI15:1,2010-10-01T16:00:00Z,28.8332,-90.8320,1011.18,11111222 
WAVCIS,ioos:station:WAVCIS:CSI15:1,2010-10-01T17:00:00Z,28.8332,-90.8320,1010.92,11111222 
WAVCIS,ioos:station:WAVCIS:CSI15:1,2010-10-01T18:00:00Z,28.8332,-90.8320,1010.66,11111222 
WAVCIS,ioos:station:WAVCIS:CSI15:1,2010-10-01T19:00:00Z,28.8332,-90.8320,1009.98,11111222 
WAVCIS,ioos:station:WAVCIS:CSI15:1,2010-10-01T20:00:00Z,28.8332,-90.8320,1009.45,11111222 
WAVCIS,ioos:station:WAVCIS:CSI15:1,2010-10-01T21:00:00Z,28.8332,-90.8320,1009.09,11111222 
WAVCIS,ioos:station:WAVCIS:CSI15:1,2010-10-01T22:00:00Z,28.8332,-90.8320,1008.7,11111222 
WAVCIS,ioos:station:WAVCIS:CSI15:1,2010-10-01T23:00:00Z,28.8332,-90.8320,1008.65,11111222 
WAVCIS,ioos:station:WAVCIS:CSI15:1,2010-10-02T00:00:00Z,28.8332,-90.8320,1008.92,11111222 
WAVCIS,ioos:station:WAVCIS:CSI15:1,2010-10-02T01:00:00Z,28.8332,-90.8320,1009.25,11111222 
WAVCIS,ioos:station:WAVCIS:CSI15:1,2010-10-02T02:00:00Z,28.8332,-90.8320,1009.93,11111222 
WAVCIS,ioos:station:WAVCIS:CSI15:1,2010-10-02T03:00:00Z,28.8332,-90.8320,1010.09,11111222 
WAVCIS,ioos:station:WAVCIS:CSI15:1,2010-10-02T04:00:00Z,28.8332,-90.8320,1010.28,11111222 
WAVCIS,ioos:station:WAVCIS:CSI15:1,2010-10-02T05:00:00Z,28.8332,-90.8320,1010.16,11111222 
WAVCIS,ioos:station:WAVCIS:CSI15:1,2010-10-02T06:00:00Z,28.8332,-90.8320,1009.78,11111222 
WAVCIS,ioos:station:WAVCIS:CSI15:1,2010-10-02T07:00:00Z,28.8332,-90.8320,1009.66,11111222 
WAVCIS,ioos:station:WAVCIS:CSI15:1,2010-10-02T08:00:00Z,28.8332,-90.8320,1009.36,11111222 
WAVCIS,ioos:station:WAVCIS:CSI15:1,2010-10-02T09:00:00Z,28.8332,-90.8320,1009.35,11111222 
WAVCIS,ioos:station:WAVCIS:CSI15:1,2010-10-02T10:00:00Z,28.8332,-90.8320,1009.47,11111222 
WAVCIS,ioos:station:WAVCIS:CSI15:1,2010-10-02T11:00:00Z,28.8332,-90.8320,1009.79,11111222 
WAVCIS,ioos:station:WAVCIS:CSI15:1,2010-10-02T12:00:00Z,28.8332,-90.8320,1010.13,11111222 
WAVCIS,ioos:station:WAVCIS:CSI15:1,2010-10-02T13:00:00Z,28.8332,-90.8320,1010.45,11111222 
WAVCIS,ioos:station:WAVCIS:CSI15:1,2010-10-02T14:00:00Z,28.8332,-90.8320,1011.24,11111222 
WAVCIS,ioos:station:WAVCIS:CSI15:1,2010-10-02T15:00:00Z,28.8332,-90.8320,1011.69,11111222 
WAVCIS,ioos:station:WAVCIS:CSI15:1,2010-10-02T16:00:00Z,28.8332,-90.8320,1011.87,11111222 
WAVCIS,ioos:station:WAVCIS:CSI15:1,2010-10-02T17:00:00Z,28.8332,-90.8320,1011.71,11111222 
WAVCIS,ioos:station:WAVCIS:CSI15:1,2010-10-02T18:00:00Z,28.8332,-90.8320,1011.26,11111222 
WAVCIS,ioos:station:WAVCIS:CSI15:1,2010-10-02T19:00:00Z,28.8332,-90.8320,1010.36,11111222 
WAVCIS,ioos:station:WAVCIS:CSI15:1,2010-10-02T20:00:00Z,28.8332,-90.8320,1009.92,11111222 
WAVCIS,ioos:station:WAVCIS:CSI15:1,2010-10-02T21:00:00Z,28.8332,-90.8320,1009.49,11111222 
WAVCIS,ioos:station:WAVCIS:CSI15:1,2010-10-02T22:00:00Z,28.8332,-90.8320,1009.64,11111222 
WAVCIS,ioos:station:WAVCIS:CSI15:1,2010-10-02T23:00:00Z,28.8332,-90.8320,1009.89,11111222 
WAVCIS,ioos:station:WAVCIS:CSI15:1,2010-10-03T00:00:00Z,28.8332,-90.8320,1010.28,11111222 
WAVCIS,ioos:station:WAVCIS:CSI15:1,2010-10-03T01:00:00Z,28.8332,-90.8320,1010.64,11111222 
WAVCIS,ioos:station:WAVCIS:CSI15:1,2010-10-03T02:00:00Z,28.8332,-90.8320,1011.18,11111222 
WAVCIS,ioos:station:WAVCIS:CSI15:1,2010-10-03T03:00:00Z,28.8332,-90.8320,1011.34,11111222 
WAVCIS,ioos:station:WAVCIS:CSI15:1,2010-10-03T04:00:00Z,28.8332,-90.8320,1011.45,11111222 
WAVCIS,ioos:station:WAVCIS:CSI15:1,2010-10-03T05:00:00Z,28.8332,-90.8320,1011.4,11111222 
WAVCIS,ioos:station:WAVCIS:CSI15:1,2010-10-03T06:00:00Z,28.8332,-90.8320,1011.42,11111222 
WAVCIS,ioos:station:WAVCIS:CSI15:1,2010-10-03T07:00:00Z,28.8332,-90.8320,1011.33,11111222 
WAVCIS,ioos:station:WAVCIS:CSI15:1,2010-10-03T08:00:00Z,28.8332,-90.8320,1011.2,11111222 
WAVCIS,ioos:station:WAVCIS:CSI15:1,2010-10-03T09:00:00Z,28.8332,-90.8320,1011.31,11111222 
WAVCIS,ioos:station:WAVCIS:CSI15:1,2010-10-03T10:00:00Z,28.8332,-90.8320,1012.01,11111222 
WAVCIS,ioos:station:WAVCIS:CSI15:1,2010-10-03T11:00:00Z,28.8332,-90.8320,1012.87,11111222 
WAVCIS,ioos:station:WAVCIS:CSI15:1,2010-10-03T12:00:00Z,28.8332,-90.8320,1013.54,11111222 
WAVCIS,ioos:station:WAVCIS:CSI15:1,2010-10-03T13:00:00Z,28.8332,-90.8320,1014.37,11111222 
WAVCIS,ioos:station:WAVCIS:CSI15:1,2010-10-03T14:00:00Z,28.8332,-90.8320,1014.98,11111222 
WAVCIS,ioos:station:WAVCIS:CSI15:1,2010-10-03T15:00:00Z,28.8332,-90.8320,1015.55,11111222 
WAVCIS,ioos:station:WAVCIS:CSI15:1,2010-10-03T16:00:00Z,28.8332,-90.8320,1015.7,11111222 
WAVCIS,ioos:station:WAVCIS:CSI15:1,2010-10-03T17:00:00Z,28.8332,-90.8320,1015.87,11111222 
WAVCIS,ioos:station:WAVCIS:CSI15:1,2010-10-03T18:00:00Z,28.8332,-90.8320,1015.37,11111222 
WAVCIS,ioos:station:WAVCIS:CSI15:1,2010-10-03T19:00:00Z,28.8332,-90.8320,1014.42,11111222 
WAVCIS,ioos:station:WAVCIS:CSI15:1,2010-10-03T20:00:00Z,28.8332,-90.8320,1013.99,11111222 
WAVCIS,ioos:station:WAVCIS:CSI15:1,2010-10-03T21:00:00Z,28.8332,-90.8320,1013.99,11111222 
WAVCIS,ioos:station:WAVCIS:CSI15:1,2010-10-03T22:00:00Z,28.8332,-90.8320,1013.71,11111222 
WAVCIS,ioos:station:WAVCIS:CSI15:1,2010-10-03T23:00:00Z,28.8332,-90.8320,1014.12,11111222 
WAVCIS,ioos:station:WAVCIS:CSI15:1,2010-10-04T00:00:00Z,28.8332,-90.8320,1014.59,11111222 
WAVCIS,ioos:station:WAVCIS:CSI15:1,2010-10-04T01:00:00Z,28.8332,-90.8320,1015.32,11111222 
WAVCIS,ioos:station:WAVCIS:CSI15:1,2010-10-04T02:00:00Z,28.8332,-90.8320,1016.28,11111222 
WAVCIS,ioos:station:WAVCIS:CSI15:1,2010-10-04T03:00:00Z,28.8332,-90.8320,1017.1,11111222 
WAVCIS,ioos:station:WAVCIS:CSI15:1,2010-10-04T04:00:00Z,28.8332,-90.8320,1017.25,11111222 
WAVCIS,ioos:station:WAVCIS:CSI15:1,2010-10-04T05:00:00Z,28.8332,-90.8320,1017.33,11111222 
WAVCIS,ioos:station:WAVCIS:CSI15:1,2010-10-04T06:00:00Z,28.8332,-90.8320,1016.88,11111222 
WAVCIS,ioos:station:WAVCIS:CSI15:1,2010-10-04T07:00:00Z,28.8332,-90.8320,1016.84,11111222 
WAVCIS,ioos:station:WAVCIS:CSI15:1,2010-10-04T08:00:00Z,28.8332,-90.8320,1016.87,11111222 
WAVCIS,ioos:station:WAVCIS:CSI15:1,2010-10-04T09:00:00Z,28.8332,-90.8320,1016.98,11111222 
WAVCIS,ioos:station:WAVCIS:CSI15:1,2010-10-04T10:00:00Z,28.8332,-90.8320,1017.6,11111222 
WAVCIS,ioos:station:WAVCIS:CSI15:1,2010-10-04T11:00:00Z,28.8332,-90.8320,1018.27,11111222 
WAVCIS,ioos:station:WAVCIS:CSI15:1,2010-10-04T12:00:00Z,28.8332,-90.8320,1018.77,11111222 
WAVCIS,ioos:station:WAVCIS:CSI15:1,2010-10-04T13:00:00Z,28.8332,-90.8320,1019.26,11111222 
WAVCIS,ioos:station:WAVCIS:CSI15:1,2010-10-04T14:00:00Z,28.8332,-90.8320,1019.97,11111222 
WAVCIS,ioos:station:WAVCIS:CSI15:1,2010-10-04T15:00:00Z,28.8332,-90.8320,1020.58,11111222 
WAVCIS,ioos:station:WAVCIS:CSI15:1,2010-10-04T16:00:00Z,28.8332,-90.8320,1020.95,11111222 
WAVCIS,ioos:station:WAVCIS:CSI15:1,2010-10-04T17:00:00Z,28.8332,-90.8320,1020.77,11111222 
WAVCIS,ioos:station:WAVCIS:CSI15:1,2010-10-04T18:00:00Z,28.8332,-90.8320,1020.04,11111222 
WAVCIS,ioos:station:WAVCIS:CSI15:1,2010-10-04T19:00:00Z,28.8332,-90.8320,1019.25,11111222 
WAVCIS,ioos:station:WAVCIS:CSI15:1,2010-10-04T20:00:00Z,28.8332,-90.8320,1018.53,11111222 
WAVCIS,ioos:station:WAVCIS:CSI15:1,2010-10-04T21:00:00Z,28.8332,-90.8320,1018.17,11111222 
WAVCIS,ioos:station:WAVCIS:CSI15:1,2010-10-04T22:00:00Z,28.8332,-90.8320,1018.11,11111222 
WAVCIS,ioos:station:WAVCIS:CSI15:1,2010-10-04T23:00:00Z,28.8332,-90.8320,1018.45,11111222 
WAVCIS,ioos:station:WAVCIS:CSI15:1,2010-10-05T00:00:00Z,28.8332,-90.8320,1018.73,11111222 
WAVCIS,ioos:station:WAVCIS:CSI15:1,2010-10-05T01:00:00Z,28.8332,-90.8320,1019.0,11111222 
WAVCIS,ioos:station:WAVCIS:CSI15:1,2010-10-05T02:00:00Z,28.8332,-90.8320,1019.56,11111222 
WAVCIS,ioos:station:WAVCIS:CSI15:1,2010-10-05T03:00:00Z,28.8332,-90.8320,1019.88,11111222 
WAVCIS,ioos:station:WAVCIS:CSI15:1,2010-10-05T04:00:00Z,28.8332,-90.8320,1020.05,11111222 
WAVCIS,ioos:station:WAVCIS:CSI15:1,2010-10-05T05:00:00Z,28.8332,-90.8320,1019.73,11111222 
WAVCIS,ioos:station:WAVCIS:CSI15:1,2010-10-05T06:00:00Z,28.8332,-90.8320,1019.5,11111222 
WAVCIS,ioos:station:WAVCIS:CSI15:1,2010-10-05T07:00:00Z,28.8332,-90.8320,1019.45,11111222 
WAVCIS,ioos:station:WAVCIS:CSI15:1,2010-10-05T08:00:00Z,28.8332,-90.8320,1019.38,11111222 
WAVCIS,ioos:station:WAVCIS:CSI15:1,2010-10-05T09:00:00Z,28.8332,-90.8320,1019.31,11111222 
WAVCIS,ioos:station:WAVCIS:CSI15:1,2010-10-05T10:00:00Z,28.8332,-90.8320,1019.4,11111222 
WAVCIS,ioos:station:WAVCIS:CSI15:1,2010-10-05T11:00:00Z,28.8332,-90.8320,1019.84,11111222 
WAVCIS,ioos:station:WAVCIS:CSI15:1,2010-10-05T12:00:00Z,28.8332,-90.8320,1020.39,11111222 
WAVCIS,ioos:station:WAVCIS:CSI15:1,2010-10-05T13:00:00Z,28.8332,-90.8320,1020.86,11111222 
WAVCIS,ioos:station:WAVCIS:CSI15:1,2010-10-05T14:00:00Z,28.8332,-90.8320,1021.64,11111222 
WAVCIS,ioos:station:WAVCIS:CSI15:1,2010-10-05T15:00:00Z,28.8332,-90.8320,1022.14,11111222 
WAVCIS,ioos:station:WAVCIS:CSI15:1,2010-10-05T16:00:00Z,28.8332,-90.8320,1022.36,11111222 
WAVCIS,ioos:station:WAVCIS:CSI15:1,2010-10-05T17:00:00Z,28.8332,-90.8320,1022.34,11111222 
WAVCIS,ioos:station:WAVCIS:CSI15:1,2010-10-05T18:00:00Z,28.8332,-90.8320,1021.79,11111222 
WAVCIS,ioos:station:WAVCIS:CSI15:1,2010-10-05T19:00:00Z,28.8332,-90.8320,1020.95,11111222 
WAVCIS,ioos:station:WAVCIS:CSI15:1,2010-10-05T20:00:00Z,28.8332,-90.8320,1020.29,11111222 
WAVCIS,ioos:station:WAVCIS:CSI15:1,2010-10-05T21:00:00Z,28.8332,-90.8320,1019.73,11111222 
WAVCIS,ioos:station:WAVCIS:CSI15:1,2010-10-05T22:00:00Z,28.8332,-90.8320,1019.52,11111222 
WAVCIS,ioos:station:WAVCIS:CSI15:1,2010-10-05T23:00:00Z,28.8332,-90.8320,1019.29,11111222 
WAVCIS,ioos:station:WAVCIS:CSI15:1,2010-10-06T00:00:00Z,28.8332,-90.8320,1019.75,11111222 
WAVCIS,ioos:station:WAVCIS:CSI15:1,2010-10-06T01:00:00Z,28.8332,-90.8320,1020.11,11111222 
WAVCIS,ioos:station:WAVCIS:CSI15:1,2010-10-06T02:00:00Z,28.8332,-90.8320,1020.46,11111222 
WAVCIS,ioos:station:WAVCIS:CSI15:1,2010-10-06T03:00:00Z,28.8332,-90.8320,1020.76,11111222 
WAVCIS,ioos:station:WAVCIS:CSI15:1,2010-10-06T04:00:00Z,28.8332,-90.8320,1020.86,11111222 
WAVCIS,ioos:station:WAVCIS:CSI15:1,2010-10-06T05:00:00Z,28.8332,-90.8320,1020.53,11111222 
WAVCIS,ioos:station:WAVCIS:CSI15:1,2010-10-06T06:00:00Z,28.8332,-90.8320,1020.35,11111222 
WAVCIS,ioos:station:WAVCIS:CSI15:1,2010-10-06T07:00:00Z,28.8332,-90.8320,1020.12,11111222 
WAVCIS,ioos:station:WAVCIS:CSI15:1,2010-10-06T08:00:00Z,28.8332,-90.8320,1019.87,11111222 
WAVCIS,ioos:station:WAVCIS:CSI15:1,2010-10-06T09:00:00Z,28.8332,-90.8320,1019.64,11111222 
WAVCIS,ioos:station:WAVCIS:CSI15:1,2010-10-06T10:00:00Z,28.8332,-90.8320,1019.66,11111222 
WAVCIS,ioos:station:WAVCIS:CSI15:1,2010-10-06T11:00:00Z,28.8332,-90.8320,1019.89,11111222 
WAVCIS,ioos:station:WAVCIS:CSI15:1,2010-10-06T12:00:00Z,28.8332,-90.8320,1020.44,11111222 
WAVCIS,ioos:station:WAVCIS:CSI15:1,2010-10-06T13:00:00Z,28.8332,-90.8320,1020.65,11111222 
WAVCIS,ioos:station:WAVCIS:CSI15:1,2010-10-06T14:00:00Z,28.8332,-90.8320,1020.98,11111222 
WAVCIS,ioos:station:WAVCIS:CSI15:1,2010-10-06T15:00:00Z,28.8332,-90.8320,1021.43,11111222 
WAVCIS,ioos:station:WAVCIS:CSI15:1,2010-10-06T16:00:00Z,28.8332,-90.8320,1021.53,11111222 
WAVCIS,ioos:station:WAVCIS:CSI15:1,2010-10-06T17:00:00Z,28.8332,-90.8320,1021.42,11111222 
WAVCIS,ioos:station:WAVCIS:CSI15:1,2010-10-06T18:00:00Z,28.8332,-90.8320,1020.64,11111222 
WAVCIS,ioos:station:WAVCIS:CSI15:1,2010-10-06T19:00:00Z,28.8332,-90.8320,1019.76,11111222 
WAVCIS,ioos:station:WAVCIS:CSI15:1,2010-10-06T20:00:00Z,28.8332,-90.8320,1019.06,11111222 
WAVCIS,ioos:station:WAVCIS:CSI15:1,2010-10-06T21:00:00Z,28.8332,-90.8320,1018.44,11111222 
WAVCIS,ioos:station:WAVCIS:CSI15:1,2010-10-06T22:00:00Z,28.8332,-90.8320,1017.94,11111222 
WAVCIS,ioos:station:WAVCIS:CSI15:1,2010-10-06T23:00:00Z,28.8332,-90.8320,1017.89,11111222 
WAVCIS,ioos:station:WAVCIS:CSI15:1,2010-10-07T00:00:00Z,28.8332,-90.8320,1017.93,11111222 
WAVCIS,ioos:station:WAVCIS:CSI15:1,2010-10-07T01:00:00Z,28.8332,-90.8320,1018.15,11111222 
WAVCIS,ioos:station:WAVCIS:CSI15:1,2010-10-07T02:00:00Z,28.8332,-90.8320,1018.58,11111222 
WAVCIS,ioos:station:WAVCIS:CSI15:1,2010-10-07T03:00:00Z,28.8332,-90.8320,1018.88,11111222 
WAVCIS,ioos:station:WAVCIS:CSI15:1,2010-10-07T04:00:00Z,28.8332,-90.8320,1018.88,11111222 
WAVCIS,ioos:station:WAVCIS:CSI15:1,2010-10-07T05:00:00Z,28.8332,-90.8320,1018.73,11111222 
WAVCIS,ioos:station:WAVCIS:CSI15:1,2010-10-07T06:00:00Z,28.8332,-90.8320,1018.29,11111222 
WAVCIS,ioos:station:WAVCIS:CSI15:1,2010-10-07T07:00:00Z,28.8332,-90.8320,1018.09,11111222 
WAVCIS,ioos:station:WAVCIS:CSI15:1,2010-10-07T08:00:00Z,28.8332,-90.8320,1017.76,11111222 
WAVCIS,ioos:station:WAVCIS:CSI15:1,2010-10-07T09:00:00Z,28.8332,-90.8320,1017.53,11111222 
WAVCIS,ioos:station:WAVCIS:CSI15:1,2010-10-07T10:00:00Z,28.8332,-90.8320,1017.75,11111222 
WAVCIS,ioos:station:WAVCIS:CSI15:1,2010-10-07T11:00:00Z,28.8332,-90.8320,1017.95,11111222 
WAVCIS,ioos:station:WAVCIS:CSI15:1,2010-10-07T12:00:00Z,28.8332,-90.8320,1018.4,11111222 
WAVCIS,ioos:station:WAVCIS:CSI15:1,2010-10-07T13:00:00Z,28.8332,-90.8320,1019.06,11111222 
WAVCIS,ioos:station:WAVCIS:CSI15:1,2010-10-07T14:00:00Z,28.8332,-90.8320,1019.57,11111222 
WAVCIS,ioos:station:WAVCIS:CSI15:1,2010-10-07T15:00:00Z,28.8332,-90.8320,1019.99,11111222 
WAVCIS,ioos:station:WAVCIS:CSI15:1,2010-10-07T16:00:00Z,28.8332,-90.8320,1019.96,11111222 
WAVCIS,ioos:station:WAVCIS:CSI15:1,2010-10-07T17:00:00Z,28.8332,-90.8320,1019.71,11111222 
WAVCIS,ioos:station:WAVCIS:CSI15:1,2010-10-07T18:00:00Z,28.8332,-90.8320,1019.11,11111222 
WAVCIS,ioos:station:WAVCIS:CSI15:1,2010-10-07T19:00:00Z,28.8332,-90.8320,1018.22,11111222 
WAVCIS,ioos:station:WAVCIS:CSI15:1,2010-10-07T20:00:00Z,28.8332,-90.8320,1017.51,11111222 
WAVCIS,ioos:station:WAVCIS:CSI15:1,2010-10-07T21:00:00Z,28.8332,-90.8320,1017.04,11111222 
WAVCIS,ioos:station:WAVCIS:CSI15:1,2010-10-07T22:00:00Z,28.8332,-90.8320,1016.86,11111222 
WAVCIS,ioos:station:WAVCIS:CSI15:1,2010-10-07T23:00:00Z,28.8332,-90.8320,1016.75,11111222 
WAVCIS,ioos:station:WAVCIS:CSI15:1,2010-10-08T00:00:00Z,28.8332,-90.8320,1016.96,11111222 
WAVCIS,ioos:station:WAVCIS:CSI15:1,2010-10-08T01:00:00Z,28.8332,-90.8320,1017.19,11111222 
WAVCIS,ioos:station:WAVCIS:CSI15:1,2010-10-08T02:00:00Z,28.8332,-90.8320,1017.37,11111222 
WAVCIS,ioos:station:WAVCIS:CSI15:1,2010-10-08T03:00:00Z,28.8332,-90.8320,1017.48,11111222 
WAVCIS,ioos:station:WAVCIS:CSI15:1,2010-10-08T04:00:00Z,28.8332,-90.8320,1017.45,11111222 
WAVCIS,ioos:station:WAVCIS:CSI15:1,2010-10-08T05:00:00Z,28.8332,-90.8320,1017.23,11111222 
WAVCIS,ioos:station:WAVCIS:CSI15:1,2010-10-08T06:00:00Z,28.8332,-90.8320,1017.06,11111222 
WAVCIS,ioos:station:WAVCIS:CSI15:1,2010-10-08T07:00:00Z,28.8332,-90.8320,1016.94,11111222 
WAVCIS,ioos:station:WAVCIS:CSI15:1,2010-10-08T08:00:00Z,28.8332,-90.8320,1016.55,11111222 
WAVCIS,ioos:station:WAVCIS:CSI15:1,2010-10-08T09:00:00Z,28.8332,-90.8320,1016.03,11111222 
WAVCIS,ioos:station:WAVCIS:CSI15:1,2010-10-08T10:00:00Z,28.8332,-90.8320,1016.04,11111222 
WAVCIS,ioos:station:WAVCIS:CSI15:1,2010-10-08T11:00:00Z,28.8332,-90.8320,1016.41,11111222 
WAVCIS,ioos:station:WAVCIS:CSI15:1,2010-10-08T12:00:00Z,28.8332,-90.8320,1016.83,11111222 
WAVCIS,ioos:station:WAVCIS:CSI15:1,2010-10-08T13:00:00Z,28.8332,-90.8320,1017.26,11111222 
WAVCIS,ioos:station:WAVCIS:CSI15:1,2010-10-08T14:00:00Z,28.8332,-90.8320,1018.06,11111222 
WAVCIS,ioos:station:WAVCIS:CSI15:1,2010-10-08T15:00:00Z,28.8332,-90.8320,1018.46,11111222 
WAVCIS,ioos:station:WAVCIS:CSI15:1,2010-10-08T16:00:00Z,28.8332,-90.8320,1018.46,11111222 
WAVCIS,ioos:station:WAVCIS:CSI15:1,2010-10-08T17:00:00Z,28.8332,-90.8320,1018.23,11111222 
WAVCIS,ioos:station:WAVCIS:CSI15:1,2010-10-08T18:00:00Z,28.8332,-90.8320,1017.56,11111222 
WAVCIS,ioos:station:WAVCIS:CSI15:1,2010-10-08T19:00:00Z,28.8332,-90.8320,1016.56,11111222 
WAVCIS,ioos:station:WAVCIS:CSI15:1,2010-10-08T20:00:00Z,28.8332,-90.8320,1015.87,11111222 
WAVCIS,ioos:station:WAVCIS:CSI15:1,2010-10-08T21:00:00Z,28.8332,-90.8320,1015.65,11111222 
WAVCIS,ioos:station:WAVCIS:CSI15:1,2010-10-11T18:00:00Z,28.8332,-90.8320,1012.76,11111222 
WAVCIS,ioos:station:WAVCIS:CSI15:1,2010-10-11T19:00:00Z,28.8332,-90.8320,1012.01,11111222 
WAVCIS,ioos:station:WAVCIS:CSI15:1,2010-10-11T20:00:00Z,28.8332,-90.8320,1011.54,11111222 
WAVCIS,ioos:station:WAVCIS:CSI15:1,2010-10-11T21:00:00Z,28.8332,-90.8320,1011.21,11111222 
WAVCIS,ioos:station:WAVCIS:CSI15:1,2010-10-11T22:00:00Z,28.8332,-90.8320,1011.21,11111222 
WAVCIS,ioos:station:WAVCIS:CSI15:1,2010-10-11T23:00:00Z,28.8332,-90.8320,1011.26,11111222 
WAVCIS,ioos:station:WAVCIS:CSI15:1,2010-10-12T00:00:00Z,28.8332,-90.8320,1011.2,11111222 
WAVCIS,ioos:station:WAVCIS:CSI15:1,2010-10-12T01:00:00Z,28.8332,-90.8320,1011.72,11111222 
WAVCIS,ioos:station:WAVCIS:CSI15:1,2010-10-12T02:00:00Z,28.8332,-90.8320,1012.46,11111222 
WAVCIS,ioos:station:WAVCIS:CSI15:1,2010-10-12T03:00:00Z,28.8332,-90.8320,1012.62,11111222 
WAVCIS,ioos:station:WAVCIS:CSI15:1,2010-10-12T04:00:00Z,28.8332,-90.8320,1012.91,11111222 
WAVCIS,ioos:station:WAVCIS:CSI15:1,2010-10-12T05:00:00Z,28.8332,-90.8320,1012.56,11111222 
WAVCIS,ioos:station:WAVCIS:CSI15:1,2010-10-12T06:00:00Z,28.8332,-90.8320,1012.17,11111222 
WAVCIS,ioos:station:WAVCIS:CSI15:1,2010-10-12T07:00:00Z,28.8332,-90.8320,1011.91,11111222 
WAVCIS,ioos:station:WAVCIS:CSI15:1,2010-10-12T08:00:00Z,28.8332,-90.8320,1011.89,11111222 
WAVCIS,ioos:station:WAVCIS:CSI15:1,2010-10-12T09:00:00Z,28.8332,-90.8320,1011.74,11111222 
WAVCIS,ioos:station:WAVCIS:CSI15:1,2010-10-12T10:00:00Z,28.8332,-90.8320,1012.19,11111222 
WAVCIS,ioos:station:WAVCIS:CSI15:1,2010-10-12T11:00:00Z,28.8332,-90.8320,1012.69,11111222 
WAVCIS,ioos:station:WAVCIS:CSI15:1,2010-10-12T12:00:00Z,28.8332,-90.8320,1013.56,11111222 
WAVCIS,ioos:station:WAVCIS:CSI15:1,2010-10-12T13:00:00Z,28.8332,-90.8320,1013.27,11111222 
WAVCIS,ioos:station:WAVCIS:CSI15:1,2010-10-12T14:00:00Z,28.8332,-90.8320,1013.31,11111222 
WAVCIS,ioos:station:WAVCIS:CSI15:1,2010-10-12T15:00:00Z,28.8332,-90.8320,1013.35,11111222 
WAVCIS,ioos:station:WAVCIS:CSI15:1,2010-10-12T16:00:00Z,28.8332,-90.8320,1013.63,11111222 
WAVCIS,ioos:station:WAVCIS:CSI15:1,2010-10-12T17:00:00Z,28.8332,-90.8320,1013.53,11111222 
WAVCIS,ioos:station:WAVCIS:CSI15:1,2010-10-12T18:00:00Z,28.8332,-90.8320,1012.9,11111222 
WAVCIS,ioos:station:WAVCIS:CSI15:1,2010-10-12T19:00:00Z,28.8332,-90.8320,1012.26,11111222 
WAVCIS,ioos:station:WAVCIS:CSI15:1,2010-10-12T20:00:00Z,28.8332,-90.8320,1012.18,11111222 
WAVCIS,ioos:station:WAVCIS:CSI15:1,2010-10-12T21:00:00Z,28.8332,-90.8320,1011.99,11111222 
WAVCIS,ioos:station:WAVCIS:CSI15:1,2010-10-12T22:00:00Z,28.8332,-90.8320,1011.92,11111222 
WAVCIS,ioos:station:WAVCIS:CSI15:1,2010-10-12T23:00:00Z,28.8332,-90.8320,1011.98,11111222 
WAVCIS,ioos:station:WAVCIS:CSI15:1,2010-10-13T00:00:00Z,28.8332,-90.8320,1011.98,11111222 
WAVCIS,ioos:station:WAVCIS:CSI15:1,2010-10-13T01:00:00Z,28.8332,-90.8320,1012.73,11111222 
WAVCIS,ioos:station:WAVCIS:CSI15:1,2010-10-13T02:00:00Z,28.8332,-90.8320,1013.05,11111222 
WAVCIS,ioos:station:WAVCIS:CSI15:1,2010-10-13T03:00:00Z,28.8332,-90.8320,1013.52,11111222 
WAVCIS,ioos:station:WAVCIS:CSI15:1,2010-10-13T04:00:00Z,28.8332,-90.8320,1013.5,11111222 
WAVCIS,ioos:station:WAVCIS:CSI15:1,2010-10-13T05:00:00Z,28.8332,-90.8320,1013.37,11111222 
WAVCIS,ioos:station:WAVCIS:CSI15:1,2010-10-13T06:00:00Z,28.8332,-90.8320,1013.15,11111222 
WAVCIS,ioos:station:WAVCIS:CSI15:1,2010-10-13T07:00:00Z,28.8332,-90.8320,1013.17,11111222 
WAVCIS,ioos:station:WAVCIS:CSI15:1,2010-10-13T08:00:00Z,28.8332,-90.8320,1013.03,11111222 
WAVCIS,ioos:station:WAVCIS:CSI15:1,2010-10-13T09:00:00Z,28.8332,-90.8320,1012.61,11111222 
WAVCIS,ioos:station:WAVCIS:CSI15:1,2010-10-13T10:00:00Z,28.8332,-90.8320,1012.99,11111222 
WAVCIS,ioos:station:WAVCIS:CSI15:1,2010-10-13T11:00:00Z,28.8332,-90.8320,1013.37,11111222 
WAVCIS,ioos:station:WAVCIS:CSI15:1,2010-10-13T12:00:00Z,28.8332,-90.8320,1013.75,11111222 
WAVCIS,ioos:station:WAVCIS:CSI15:1,2010-10-13T13:00:00Z,28.8332,-90.8320,1014.09,11111222 
WAVCIS,ioos:station:WAVCIS:CSI15:1,2010-10-13T14:00:00Z,28.8332,-90.8320,1014.82,11111222 
WAVCIS,ioos:station:WAVCIS:CSI15:1,2010-10-13T15:00:00Z,28.8332,-90.8320,1015.31,11111222 
WAVCIS,ioos:station:WAVCIS:CSI15:1,2010-10-13T16:00:00Z,28.8332,-90.8320,1015.29,11111222 
WAVCIS,ioos:station:WAVCIS:CSI15:1,2010-10-13T17:00:00Z,28.8332,-90.8320,1015.03,11111222 
WAVCIS,ioos:station:WAVCIS:CSI15:1,2010-10-13T18:00:00Z,28.8332,-90.8320,1014.59,11111222 
WAVCIS,ioos:station:WAVCIS:CSI15:1,2010-10-13T19:00:00Z,28.8332,-90.8320,1014.03,11111222 
WAVCIS,ioos:station:WAVCIS:CSI15:1,2010-10-13T20:00:00Z,28.8332,-90.8320,1013.58,11111222 
WAVCIS,ioos:station:WAVCIS:CSI15:1,2010-10-13T21:00:00Z,28.8332,-90.8320,1013.47,11111222 
WAVCIS,ioos:station:WAVCIS:CSI15:1,2010-10-13T22:00:00Z,28.8332,-90.8320,1013.31,11111222 
WAVCIS,ioos:station:WAVCIS:CSI15:1,2010-10-13T23:00:00Z,28.8332,-90.8320,1013.48,11111222 
WAVCIS,ioos:station:WAVCIS:CSI15:1,2010-10-14T00:00:00Z,28.8332,-90.8320,1013.96,11111222 
WAVCIS,ioos:station:WAVCIS:CSI15:1,2010-10-14T01:00:00Z,28.8332,-90.8320,1014.7,11111222 
WAVCIS,ioos:station:WAVCIS:CSI15:1,2010-10-14T02:00:00Z,28.8332,-90.8320,1014.92,11111222 
WAVCIS,ioos:station:WAVCIS:CSI15:1,2010-10-14T03:00:00Z,28.8332,-90.8320,1015.28,11111222 
WAVCIS,ioos:station:WAVCIS:CSI15:1,2010-10-14T04:00:00Z,28.8332,-90.8320,1015.64,11111222 
WAVCIS,ioos:station:WAVCIS:CSI15:1,2010-10-14T05:00:00Z,28.8332,-90.8320,1015.43,11111222 
WAVCIS,ioos:station:WAVCIS:CSI15:1,2010-10-14T06:00:00Z,28.8332,-90.8320,1015.25,11111222 
WAVCIS,ioos:station:WAVCIS:CSI15:1,2010-10-14T07:00:00Z,28.8332,-90.8320,1015.11,11111222 
WAVCIS,ioos:station:WAVCIS:CSI15:1,2010-10-14T08:00:00Z,28.8332,-90.8320,1014.84,11111222 
WAVCIS,ioos:station:WAVCIS:CSI15:1,2010-10-14T09:00:00Z,28.8332,-90.8320,1014.65,11111222 
WAVCIS,ioos:station:WAVCIS:CSI15:1,2010-10-14T10:00:00Z,28.8332,-90.8320,1015.02,11111222 
WAVCIS,ioos:station:WAVCIS:CSI15:1,2010-10-14T11:00:00Z,28.8332,-90.8320,1015.47,11111222 
WAVCIS,ioos:station:WAVCIS:CSI15:1,2010-10-14T12:00:00Z,28.8332,-90.8320,1016.21,11111222 
WAVCIS,ioos:station:WAVCIS:CSI15:1,2010-10-14T13:00:00Z,28.8332,-90.8320,1016.67,11111222 
WAVCIS,ioos:station:WAVCIS:CSI15:1,2010-10-14T14:00:00Z,28.8332,-90.8320,1017.22,11111222 
WAVCIS,ioos:station:WAVCIS:CSI15:1,2010-10-14T15:00:00Z,28.8332,-90.8320,1017.58,11111222 
WAVCIS,ioos:station:WAVCIS:CSI15:1,2010-10-14T16:00:00Z,28.8332,-90.8320,1017.55,11111222 
WAVCIS,ioos:station:WAVCIS:CSI15:1,2010-10-14T17:00:00Z,28.8332,-90.8320,1017.36,11111222 
WAVCIS,ioos:station:WAVCIS:CSI15:1,2010-10-14T18:00:00Z,28.8332,-90.8320,1016.95,11111222 